Location: Slave Lake
(55.2830°N, 114.7830°W)
Time: 23:57:36
(UTC-06:00)

Amateur Radio Satellites - All Passes

Search period start: 30 September 2014 23:27
Search period end: 01 October 2014 23:27
Location: Slave Lake, 55.2830°N, 114.7830°W

Satellite Date Start Highest point End Downlink Frequencies (MHz)
Time Altitude Azimuth
KITSAT 1 30 Sep 23:29:41 23:37:15 40° 9° (N) 23:44:48 435.175 FM
UOSAT-12 30 Sep 23:42:17 23:46:59 78° 320° (NW) 23:51:46 437.025 FM, 437.400 FM
ZACube-1 30 Sep 23:57:06 00:01:07 29° 267° (W) 00:05:11 437.345 MHz
ISS 01 Oct 00:15:39 00:18:13 21° 153° (SSE) 00:20:47 145.800 FM
FUNcube-1 01 Oct 00:51:18 00:52:57 12° 278° (W) 00:54:36 145.950 - 145.970 MHz USB
SO-50 01 Oct 00:56:06 01:00:06 27° 2° (N) 01:04:10 436.795 FM
Saudisat 1A 01 Oct 01:06:06 01:06:22 10° 251° (WSW) 01:06:39 436.775 MHz
RS-15 01 Oct 01:21:24 01:25:57 14° 91° (E) 01:30:28 29.354 - 29.394 USB, Beacon 29.352 USB
UOSAT-12 01 Oct 01:23:31 01:27:46 32° 343° (NNW) 01:32:04 437.025 FM, 437.400 FM
KITSAT 1 01 Oct 01:25:59 01:34:04 66° 36° (NE) 01:42:06 435.175 FM
ISS 01 Oct 01:51:15 01:54:25 42° 172° (S) 01:57:36 145.800 FM
Oscar 19 01 Oct 01:56:27 01:59:28 15° 85° (E) 02:02:28 437.125 CW, 437.150 USB
Oscar 16 01 Oct 02:36:34 02:41:09 31° 94° (E) 02:45:41 437.025 USB, Beacon 2401.1428
SO-50 01 Oct 02:37:14 02:41:43 40° 26° (NNE) 02:46:18 436.795 FM
AO-27 01 Oct 02:45:55 02:49:32 19° 87° (E) 02:53:08 436.795 MHz FM
AO-Echo 01 Oct 02:47:14 02:51:03 22° 90° (E) 02:54:55 ?
UOSAT-12 01 Oct 03:05:01 03:09:06 27° 7° (N) 03:13:11 437.025 FM, 437.400 FM
Gurwin Techsat 1B 01 Oct 03:10:15 03:13:34 16° 85° (E) 03:16:51 435.225 FM
JAS-1B 01 Oct 03:19:15 03:24:35 40° 97° (E) 03:30:05 435.800 - 435.900 CW/SSB
KITSAT 1 01 Oct 03:21:40 03:29:22 50° 241° (WSW) 03:37:02 435.175 FM
RS-15 01 Oct 03:24:58 03:35:16 50° 117° (ESE) 03:45:34 29.354 - 29.394 USB, Beacon 29.352 USB
ISS 01 Oct 03:27:40 03:30:48 38° 192° (SSW) 03:33:55 145.800 FM
OPAL 01 Oct 03:30:26 03:34:14 21° 48° (NE) 03:38:03 ?
Oscar 19 01 Oct 03:34:30 03:39:42 79° 105° (ESE) 03:44:51 437.125 CW, 437.150 USB
TMSAT-1 01 Oct 03:38:34 03:42:31 21° 88° (E) 03:46:27 436.925 FM
ITAMSAT 1 01 Oct 03:46:04 03:51:09 49° 100° (E) 03:56:13 435.822 SSB
Uribyol 2 01 Oct 03:46:57 03:52:06 52° 100° (E) 03:57:12 436.500 FM
Oscar 16 01 Oct 04:15:45 04:20:48 54° 294° (WNW) 04:25:48 437.025 USB, Beacon 2401.1428
SO-50 01 Oct 04:17:51 04:22:37 68° 228° (SW) 04:27:26 436.795 FM
AO-27 01 Oct 04:24:31 04:29:48 90° 287° (WNW) 04:35:02 436.795 MHz FM
AO-Echo 01 Oct 04:25:23 04:30:21 75° 289° (WNW) 04:35:26 ?
AO-7 01 Oct 04:40:35 04:46:52 23° 86° (E) 04:53:07 29.400 - 29.500 MHz
UOSAT-12 01 Oct 04:45:35 04:50:12 48° 30° (NNE) 04:54:48 437.025 FM, 437.400 FM
Gurwin Techsat 1B 01 Oct 04:49:03 04:54:25 80° 106° (ESE) 04:59:45 435.225 FM
ISS 01 Oct 05:04:42 05:06:55 17° 211° (SSW) 05:09:07 145.800 FM
OPAL 01 Oct 05:07:15 05:12:29 82° 68° (ENE) 05:17:43 ?
JAS-1B 01 Oct 05:10:06 05:15:29 44° 299° (WNW) 05:20:58 435.800 - 435.900 CW/SSB
Oscar 19 01 Oct 05:14:31 05:18:35 24° 306° (NW) 05:22:37 437.125 CW, 437.150 USB
TMSAT-1 01 Oct 05:17:46 05:23:07 82° 289° (WNW) 05:28:26 436.925 FM
KITSAT 1 01 Oct 05:19:29 05:22:52 13° 264° (W) 05:26:15 435.175 FM
ITAMSAT 1 01 Oct 05:25:49 05:30:35 36° 300° (WNW) 05:35:19 435.822 SSB
Uribyol 2 01 Oct 05:26:44 05:31:26 34° 301° (WNW) 05:36:07 436.500 FM
RS-15 01 Oct 05:36:14 05:47:12 75° 325° (NW) 05:58:18 29.354 - 29.394 USB, Beacon 29.352 USB
Uosat F 01 Oct 05:46:48 05:51:35 41° 98° (E) 05:56:20 435.120 FM
JAS-2 01 Oct 05:52:43 05:57:05 18° 84° (E) 06:01:44 435.800 - 435.900 CW/SSB, 435.910 FM
Oscar 16 01 Oct 05:56:31 05:59:09 14° 315° (NW) 06:01:46 437.025 USB, Beacon 2401.1428
SO-50 01 Oct 05:59:38 06:02:26 16° 247° (WSW) 06:05:15 436.795 FM
AO-27 01 Oct 06:04:49 06:08:43 22° 308° (NW) 06:12:37 436.795 MHz FM
AO-Echo 01 Oct 06:05:15 06:08:26 18° 309° (NW) 06:11:40 ?
STRAND 1 01 Oct 06:09:47 06:14:13 31° 58° (ENE) 06:18:41 ?
UOSAT-12 01 Oct 06:25:52 06:30:27 49° 232° (SW) 06:34:59 437.025 FM, 437.400 FM
Gurwin Techsat 1B 01 Oct 06:29:41 06:33:54 24° 306° (NW) 06:38:06 435.225 FM
AO-7 01 Oct 06:32:43 06:41:04 78° 109° (ESE) 06:49:23 29.400 - 29.500 MHz
Hamsat 01 Oct 06:35:04 06:38:03 18° 89° (E) 06:41:00 145.90 MHz
OPAL 01 Oct 06:48:06 06:51:59 21° 269° (W) 06:55:53 ?
MaSat-1 01 Oct 06:52:36 06:57:12 48° 119° (ESE) 07:01:29 437.345 MHz
TMSAT-1 01 Oct 06:58:34 07:02:22 20° 309° (NW) 07:06:09 436.925 FM
JAS-1B 01 Oct 07:02:35 07:04:48 12° 324° (NW) 07:07:01 435.800 - 435.900 CW/SSB
ITAMSAT 1 01 Oct 07:08:01 07:08:44 10° 322° (NW) 07:09:28 435.822 SSB
Uosat F 01 Oct 07:25:42 07:30:25 40° 298° (WNW) 07:35:06 435.120 FM
JAS-2 01 Oct 07:36:44 07:43:08 72° 104° (ESE) 07:50:20 435.800 - 435.900 CW/SSB, 435.910 FM
STRAND 1 01 Oct 07:48:11 07:53:12 57° 258° (WSW) 07:58:17 ?
RS-15 01 Oct 07:50:35 08:01:13 53° 356° (N) 08:12:06 29.354 - 29.394 USB, Beacon 29.352 USB
Hamsat 01 Oct 08:10:16 08:14:29 67° 289° (WNW) 08:18:38 145.90 MHz
AO-7 01 Oct 08:25:56 08:33:23 39° 313° (NW) 08:40:49 29.400 - 29.500 MHz
MaSat-1 01 Oct 08:29:22 08:33:48 39° 317° (NW) 08:37:52 437.345 MHz
SO-67 01 Oct 08:41:16 08:44:39 47° 99° (E) 08:48:00 435.3500 MHz FM
HO-68 01 Oct 08:51:36 08:54:43 13° 78° (ENE) 08:57:49 435.675 MHz FM
Uosat F 01 Oct 09:06:44 09:08:00 11° 320° (NW) 09:09:16 435.120 FM
PCSat 01 Oct 09:13:33 09:14:42 11° 101° (E) 09:15:50 145.825 MHz
JAS-2 01 Oct 09:22:21 09:27:54 34° 303° (WNW) 09:34:02 435.800 - 435.900 CW/SSB, 435.910 FM
STRAND 1 01 Oct 09:32:26 09:33:34 11° 279° (W) 09:34:42 ?
Hamsat 01 Oct 09:47:45 09:49:41 13° 309° (NW) 09:51:37 145.90 MHz
RS-15 01 Oct 10:04:34 10:15:32 67° 28° (NNE) 10:26:50 29.354 - 29.394 USB, Beacon 29.352 USB
MaSat-1 01 Oct 10:08:37 10:11:19 15° 339° (NNW) 10:13:51 437.345 MHz
SO-67 01 Oct 10:14:51 10:17:25 20° 299° (WNW) 10:19:59 435.3500 MHz FM
AO-7 01 Oct 10:18:57 10:24:05 19° 338° (NNW) 10:29:14 29.400 - 29.500 MHz
Sapphire 01 Oct 10:26:42 10:31:29 33° 116° (ESE) 10:36:19 437.095 MHz 1200 baud AX-25 AFSK
Oscar 11 01 Oct 10:28:54 10:32:01 19° 89° (E) 10:35:07 145.825 FM, Beacon 2401.500 USB
HO-68 01 Oct 10:37:09 10:44:12 54° 101° (E) 10:51:12 435.675 MHz FM
PCSat 01 Oct 10:51:41 10:56:54 50° 122° (ESE) 11:02:09 145.825 MHz
FUNcube-1 01 Oct 10:53:56 10:56:55 17° 86° (E) 10:59:51 145.950 - 145.970 MHz USB
UKube-1 01 Oct 10:58:05 11:02:11 37° 98° (E) 11:06:15 145.840 MHz, 145.915 MHz
JAS-2 01 Oct 11:09:38 11:11:23 11° 326° (NW) 11:13:10 435.800 - 435.900 CW/SSB, 435.910 FM
ZACube-1 01 Oct 11:38:24 11:42:43 38° 96° (E) 11:46:56 437.345 MHz
Oscar 19 01 Oct 11:44:34 11:46:34 12° 42° (NE) 11:48:35 437.125 CW, 437.150 USB
MaSat-1 01 Oct 11:48:04 11:49:26 11° 3° (N) 11:50:45 437.345 MHz
Oscar 11 01 Oct 12:04:21 12:08:41 69° 289° (WNW) 12:12:59 145.825 FM, Beacon 2401.500 USB
Sapphire 01 Oct 12:09:16 12:14:39 66° 317° (NW) 12:20:06 437.095 MHz 1200 baud AX-25 AFSK
AO-7 01 Oct 12:09:45 12:13:52 15° 6° (N) 12:18:00 29.400 - 29.500 MHz
RS-15 01 Oct 12:17:17 12:28:04 63° 237° (WSW) 12:39:16 29.354 - 29.394 USB, Beacon 29.352 USB
Oscar 16 01 Oct 12:23:20 12:27:08 21° 51° (NE) 12:30:56 437.025 USB, Beacon 2401.1428
JAS-1B 01 Oct 12:24:02 12:28:44 21° 48° (NE) 12:33:04 435.800 - 435.900 CW/SSB
HO-68 01 Oct 12:25:06 12:31:55 48° 303° (WNW) 12:38:42 435.675 MHz FM
FUNcube-1 01 Oct 12:29:19 12:33:57 84° 287° (WNW) 12:38:28 145.950 - 145.970 MHz USB
AO-Echo 01 Oct 12:32:04 12:34:08 13° 45° (NE) 12:36:12 ?
UKube-1 01 Oct 12:34:23 12:38:23 35° 297° (WNW) 12:42:22 145.840 MHz, 145.915 MHz
AO-27 01 Oct 12:34:41 12:37:25 15° 44° (NE) 12:40:10 436.795 MHz FM
PCSat 01 Oct 12:35:10 12:40:26 48° 324° (NW) 12:45:43 145.825 MHz
Gurwin Techsat 1B 01 Oct 13:01:49 13:04:18 14° 43° (NE) 13:06:48 435.225 FM
ZACube-1 01 Oct 13:14:54 13:19:09 37° 296° (WNW) 13:23:18 437.345 MHz
Oscar 19 01 Oct 13:19:51 13:24:46 45° 64° (ENE) 13:29:43 437.125 CW, 437.150 USB
MaSat-1 01 Oct 13:24:34 13:27:26 19° 27° (NNE) 13:30:02 437.345 MHz
TMSAT-1 01 Oct 13:29:25 13:32:31 16° 46° (NE) 13:35:37 436.925 FM
ITAMSAT 1 01 Oct 13:33:03 13:37:33 31° 58° (ENE) 13:42:06 435.822 SSB
Uribyol 2 01 Oct 13:33:43 13:38:18 33° 58° (ENE) 13:42:56 436.500 FM
Oscar 11 01 Oct 13:41:56 13:44:08 14° 309° (NW) 13:46:20 145.825 FM, Beacon 2401.500 USB
Sapphire 01 Oct 13:54:20 13:59:02 29° 342° (NNW) 14:03:44 437.095 MHz 1200 baud AX-25 AFSK
AO-7 01 Oct 13:57:43 14:03:56 25° 33° (NNE) 14:10:09 29.400 - 29.500 MHz
Oscar 16 01 Oct 14:00:40 14:05:53 87° 73° (ENE) 14:11:07 437.025 USB, Beacon 2401.1428
FUNcube-1 01 Oct 14:06:42 14:09:41 17° 307° (NW) 14:12:39 145.950 - 145.970 MHz USB
AO-Echo 01 Oct 14:07:22 14:11:57 54° 67° (ENE) 14:16:37 ?
AO-27 01 Oct 14:10:54 14:15:57 55° 66° (ENE) 14:21:02 436.795 MHz FM
JAS-1B 01 Oct 14:11:36 14:18:42 74° 69° (ENE) 14:24:46 435.800 - 435.900 CW/SSB
HO-68 01 Oct 14:13:37 14:18:05 18° 327° (NNW) 14:22:34 435.675 MHz FM
PCSat 01 Oct 14:20:34 14:25:04 25° 349° (N) 14:29:34 145.825 MHz
RS-15 01 Oct 14:30:52 14:38:09 21° 262° (W) 14:45:37 29.354 - 29.394 USB, Beacon 29.352 USB
Gurwin Techsat 1B 01 Oct 14:38:05 14:43:10 49° 65° (ENE) 14:48:18 435.225 FM
Oscar 19 01 Oct 14:59:26 15:04:15 38° 264° (W) 15:09:05 437.125 CW, 437.150 USB
MaSat-1 01 Oct 15:00:48 15:04:36 79° 53° (NE) 15:07:49 437.345 MHz
TMSAT-1 01 Oct 15:06:18 15:11:30 61° 67° (ENE) 15:16:45 436.925 FM
ITAMSAT 1 01 Oct 15:11:43 15:16:50 58° 258° (WSW) 15:22:00 435.822 SSB
Uribyol 2 01 Oct 15:12:31 15:17:36 55° 259° (W) 15:22:45 436.500 FM
Saudisat 1A 01 Oct 15:15:31 15:19:31 35° 124° (SE) 15:23:32 436.775 MHz
Uosat F 01 Oct 15:29:57 15:34:00 25° 55° (NE) 15:38:03 435.120 FM
Sapphire 01 Oct 15:39:38 15:44:04 24° 7° (N) 15:48:30 437.095 MHz 1200 baud AX-25 AFSK
Oscar 16 01 Oct 15:42:18 15:45:57 19° 273° (W) 15:49:37 437.025 USB, Beacon 2401.1428
AO-Echo 01 Oct 15:47:06 15:51:04 27° 268° (W) 15:55:07 ?
AO-7 01 Oct 15:47:13 15:55:18 60° 58° (ENE) 16:03:23 29.400 - 29.500 MHz
Oscar 10/S400 01 Oct 15:48:00 15:58:25 16° 140° (SE) 16:11:37 145.825 - 145.975 CW/USB, Beacon 145.810 USB
AO-27 01 Oct 15:51:13 15:55:46 31° 266° (W) 16:00:22 436.795 MHz FM
JAS-1B 01 Oct 16:03:59 16:09:55 28° 268° (W) 16:15:11 435.800 - 435.900 CW/SSB
PCSat 01 Oct 16:05:31 16:10:07 27° 15° (NNE) 16:14:42 145.825 MHz
KITSAT 1 01 Oct 16:10:19 16:11:31 10° 93° (E) 16:12:43 435.175 FM
JAS-2 01 Oct 16:15:01 16:18:27 18° 44° (NE) 16:22:04 435.800 - 435.900 CW/SSB, 435.910 FM
Gurwin Techsat 1B 01 Oct 16:18:30 16:23:21 35° 265° (W) 16:28:13 435.225 FM
MaSat-1 01 Oct 16:38:41 16:40:18 13° 256° (WSW) 16:41:49 437.345 MHz
TMSAT-1 01 Oct 16:47:17 16:51:49 28° 268° (W) 16:56:23 436.925 FM
Saudisat 1A 01 Oct 16:54:37 16:58:58 57° 325° (NW) 17:03:21 436.775 MHz
ITAMSAT 1 01 Oct 16:55:59 16:57:30 11° 279° (W) 16:59:00 435.822 SSB
Uribyol 2 01 Oct 16:57:24 16:58:18 10° 280° (W) 16:59:13 436.500 FM
Uosat F 01 Oct 17:07:24 17:12:24 72° 255° (WSW) 17:17:26 435.120 FM
OPAL 01 Oct 17:12:13 17:13:51 11° 84° (E) 17:15:28 ?
Sapphire 01 Oct 17:23:38 17:28:49 42° 32° (NNE) 17:33:59 437.095 MHz 1200 baud AX-25 AFSK
Hamsat 01 Oct 17:34:59 17:38:52 34° 64° (ENE) 17:42:45 145.90 MHz
AO-7 01 Oct 17:40:28 17:48:23 47° 260° (W) 17:56:21 29.400 - 29.500 MHz
HO-68 01 Oct 17:45:18 17:47:49 12° 20° (NNE) 17:50:19 435.675 MHz FM
PCSat 01 Oct 17:49:15 17:54:37 56° 39° (NE) 17:59:58 145.825 MHz
KITSAT 1 01 Oct 17:57:17 18:04:46 43° 116° (ESE) 18:12:15 435.175 FM
JAS-2 01 Oct 17:57:20 18:02:32 67° 68° (ENE) 18:08:12 435.800 - 435.900 CW/SSB, 435.910 FM
Saudisat 1A 01 Oct 18:35:33 18:39:20 27° 348° (NNW) 18:43:08 436.775 MHz
OPAL 01 Oct 18:48:45 18:53:51 60° 105° (ESE) 18:58:51 ?
Uosat F 01 Oct 18:49:40 18:52:08 14° 276° (W) 18:54:36 435.120 FM
Sapphire 01 Oct 19:07:10 19:12:33 63° 235° (SW) 19:17:54 437.095 MHz 1200 baud AX-25 AFSK
Hamsat 01 Oct 19:10:46 19:14:49 38° 263° (W) 19:18:51 145.90 MHz
SO-67 01 Oct 19:20:49 19:24:10 51° 71° (ENE) 19:27:33 435.3500 MHz FM
HO-68 01 Oct 19:27:32 19:33:18 27° 45° (NE) 19:39:04 435.675 MHz FM
PCSat 01 Oct 19:32:53 19:37:59 41° 241° (WSW) 19:43:02 145.825 MHz
AO-7 01 Oct 19:40:56 19:43:33 12° 285° (WNW) 19:46:11 29.400 - 29.500 MHz
JAS-2 01 Oct 19:44:02 19:48:19 25° 272° (W) 19:52:52 435.800 - 435.900 CW/SSB, 435.910 FM
STRAND 1 01 Oct 19:51:25 19:55:55 29° 93° (E) 20:00:24 ?
KITSAT 1 01 Oct 19:51:45 19:59:51 73° 320° (NW) 20:07:59 435.175 FM
Saudisat 1A 01 Oct 20:16:15 20:20:04 27° 12° (NNE) 20:23:53 436.775 MHz
SO-50 01 Oct 20:19:49 20:23:52 33° 122° (ESE) 20:28:02 436.795 FM
UKube-1 01 Oct 20:26:29 20:29:10 16° 52° (NE) 20:31:51 145.840 MHz, 145.915 MHz
OPAL 01 Oct 20:28:01 20:32:30 31° 306° (NW) 20:36:54 ?
Sapphire 01 Oct 20:52:14 20:54:58 14° 256° (WSW) 20:57:42 437.095 MHz 1200 baud AX-25 AFSK
SO-67 01 Oct 20:55:08 20:57:29 17° 270° (W) 20:59:50 435.3500 MHz FM
ZACube-1 01 Oct 21:07:45 21:10:28 16° 51° (NE) 21:13:12 437.345 MHz
HO-68 01 Oct 21:13:01 21:20:10 81° 67° (ENE) 21:27:22 435.675 MHz FM
STRAND 1 01 Oct 21:30:23 21:35:26 56° 294° (WNW) 21:40:28 ?
Oscar 11 01 Oct 21:30:34 21:34:35 37° 64° (ENE) 21:38:36 145.825 FM, Beacon 2401.500 USB
KITSAT 1 01 Oct 21:48:54 21:56:31 42° 347° (NNW) 22:04:07 435.175 FM
Saudisat 1A 01 Oct 21:56:00 22:00:25 59° 36° (NE) 22:04:47 436.775 MHz
FUNcube-1 01 Oct 21:56:48 22:00:53 33° 62° (ENE) 22:05:01 145.950 - 145.970 MHz USB
SO-50 01 Oct 21:59:41 22:04:14 62° 324° (NW) 22:08:55 436.795 FM
UKube-1 01 Oct 22:00:24 22:04:45 82° 72° (ENE) 22:09:08 145.840 MHz, 145.915 MHz
UOSAT-12 01 Oct 22:23:03 22:27:29 44° 126° (SE) 22:31:59 437.025 FM, 437.400 FM
ZACube-1 01 Oct 22:41:33 22:46:08 72° 72° (ENE) 22:50:47 437.345 MHz
HO-68 01 Oct 23:02:39 23:08:40 29° 269° (W) 23:14:45 435.675 MHz FM
Oscar 11 01 Oct 23:06:46 23:10:48 36° 264° (W) 23:14:51 145.825 FM, Beacon 2401.500 USB
STRAND 1 01 Oct 23:10:55 23:13:40 15° 315° (NW) 23:16:25 ?
